Location: Praha
(50.0830°N, 14.4670°E)
Time: 03:49:13
(UTC+02:00)

ISS - Visible Passes

Search period start: 17 April 2024 00:00
Search period end: 27 April 2024 00:00
Orbit: 412 x 419 km, 51.6° (Epoch: 16 April)

Date Brightness Start Highest point End Pass type
(mag) Time Alt. Az. Time Alt. Az. Time Alt. Az.
23 Apr -1.6 04:45:03 10° S 04:47:22 18° SE 04:49:43 10° E visible
24 Apr -1.2 03:57:38 10° SSE 03:58:43 12° SE 03:59:59 10° ESE visible
25 Apr -2.7 04:43:25 13° SSW 04:45:59 35° SSE 04:49:04 10° E visible
26 Apr -2.2 03:56:16 21° S 03:57:10 24° SE 03:59:55 10° E visible
